Regional Weather Roundup
Issued by NWS Portland, ME

Home | Current Version | Previous Version | Text Only | Print | Product List | Glossary On
Versions: 1 2 3 4 5 6 7 8 9 10 11 12 13 14 15 16 17 18 19 20 21 22 23 24 25 26 27 28 29 30 31 32 33 34 35 36 37 38 39 40 41 42 43 44 45 46 47 48 49 50
000
ASUS41 KGYX 031710
RWRGYX
WEATHER ROUNDUP FOR MAINE AND NEW HAMPSHIRE
NATIONAL WEATHER SERVICE GRAY ME
100 PM EDT FRI JUL 03 2015

MEZ002-005-006-010-012-015-018-020-021-024-026-027-029-031800-
MAINE

CITY           SKY/WX    TMP DP  RH WIND       PRES   REMARKS
PORTLAND       MOSUNNY   77  46  33 SW6       29.92F
SANFORD        SUNNY     75  43  31 NW3       29.95R
BAR HARBOR     SUNNY     75  45  33 W10G16    29.87R
WISCASSET      SUNNY     76  46  34 W8        29.91F
ROCKLAND       SUNNY     73  46  38 W12G17    29.87S
FRYEBURG       MOSUNNY   76  43  30 NW9       29.93F
LEWISTONAUBURN SUNNY     73  46  38 N9G16     29.92S
AUGUSTA        SUNNY     74  45  35 NW14G21   29.91S
WATERVILLE     SUNNY     73  46  38 W10G16    29.87S
BANGOR         PTSUNNY   75  45  34 W8G18     29.86F
GREENVILLE       N/A     68  42  38 VRB7G20   29.87S
MILLINOCKET    MOSUNNY   72  39  30 W13G23    29.85S
HOULTON        SUNNY     73  44  35 W16G25    29.79F
PRESQUE ISLE   CLOUDY    70  43  37 W14       29.79R
FRENCHVILLE    CLOUDY    66  47  50 W18G26    29.78R
CARIBOU        CLOUDY    69  47  45 NW12G18   29.77S
$$

NHZ002-005-008-009-011-012-014-031800-
NEW HAMPSHIRE

CITY           SKY/WX    TMP DP  RH WIND       PRES   REMARKS
PORTSMOUTH     MOSUNNY   77  46  33 SW6       29.93S
ROCHESTER      SUNNY     76  44  32 NW10      29.94S
NASHUA         SUNNY     76  42  29 NW8       29.97S
MANCHESTER     MOSUNNY   77  42  28 N8        29.94F
CONCORD        SUNNY     77  43  29 N9        29.96S
LACONIA        SUNNY     73  45  35 W7        29.95S
PLYMOUTH       FAIR      73  50  43 W6        29.95F
BERLIN         MOSUNNY   73  43  33 NW8G17    29.94F
WHITEFIELD     MOSUNNY   74  45  35 NW8       29.96F
JAFFREY        SUNNY     73  42  32 NW3       29.99S
KEENE          SUNNY     73  43  33 NE7       29.98F
LEBANON        SUNNY     76  46  34 N8        29.96F
MT WASHINGTON  PTSUNNY   45  37  76 NW35G40     N/A
$$

VTZ005-007-008-031800-
VERMONT

CITY           SKY/WX    TMP DP  RH WIND       PRES   REMARKS
ST JOHNSBURY     N/A     75  45  34 MISG      29.94F
MONTPELIER     SUNNY     71  46  40 VRB5      30.03S
BURLINGTON     MOSUNNY   76  44  32 W7        29.97F
$$

MAZ007-012-024-CTZ003-RIZ002-NYZ038-NYZ072-031800-
SOUTHERN NEW ENGLAND AND NY

CITY           SKY/WX    TMP DP  RH WIND       PRES   REMARKS
BOSTON         MOSUNNY   72  53  51 SE10      29.96R
WORCESTER      SUNNY     73  47  39 W9        29.99S
NANTUCKET      SUNNY     75  51  43 NE12      29.97R
PROVIDENCE     MOSUNNY   78  50  37 VRB5      29.97R
HARTFORD       MOSUNNY   76  49  38 VRB6      29.97F
ALBANY         MOSUNNY   76  49  38 VRB6      30.00F
NEW YORK CITY  MOSUNNY   77  48  35 CALM      29.98F
$$

ANZ081-ANZ082-ANZ150-NHZ014-MEZ023>029-031800-
COASTAL MARINE OBSERVATIONS

STATION/POSITION TIME  TEMP    WIND        PRES    WAVE
                       AIR SEA DIR/SP/G            HT/PER
                 (UTC) (F)     (DEG/KT/KT) (MB)    (FT/S)
MOUNT DESERT ROC 1700   57     230/ 14/ 15 1012.4F
MATINICUS ROCK   1700   58     240/ 15/ 15 1012.4F
ISLE OF SHOALS   1700   69     200/  7/  8 1013.6R
JEFFREYS LEDGE   1603      60                N/A     2/ 8
CASHES LEDGE BUO 1650   60 58              1013.2R   2/ 9
GEORGES BANK BUO 1650   59 58   30/  4/  6 1012.5R   7/10
$$

.............KEY..............
   WCI - WIND CHILL
   TC  - TEMPERATURE IN CELSIUS
   VSB - VISIBILITY IN MILES
   HX  - HEAT INDEX
   FAIR- INDICATES FEW OR NO CLOUDS BELOW 12,000 FT, WITH NO
         SIGNIFICANT WEATHER AND/OR OBSTRUCTIONS TO VISIBILITY.




USA.gov is the U.S. government's official web portal to all federal, state and local government web resources and services.